Location: Bosmont
(49.7318°N, 3.8587°E)
Time: 13:56:22
(UTC+00:00)

FO-29 - Pass Details

Date: 04 December 2023
Orbit: 799 x 1322 km, 98.6° (Epoch: 04 March)

Event Time Altitude Azimuth Distance (km) Brightness Sun altitude
Rises 04:45:36 0° 9° (N) 4,075 12.8 -24.5°
Reaches altitude 10° 04:48:36 10° 358° (N) 3,178 12.1 -24.0°
Enters shadow 04:52:33 24° 327° (NNW) 2,376 11.1 -23.4°
